Lid_Strength_Index
4 4 3 3 3 4 4 5 4 5 5 4 4 3 3 3 3 2 2 2 2 2 2 3 3 2 4
7 5 4 4 5 5 6 6 7 5 6 5 6 5 4 4 4 3 3 3 3 3 3 1 2 2 5
8 7 6 6 6 6 7 7 6 8 9 8 7 6 5 5 5 4 4 4 4 4 3 2 2 6 7
9 9 9 9 9 9 9 9 9 9 9 8 7 6 6 6 6 5 5 5 6 8 8 6 7 7 7
11 10 10 10 10 10 10 10 10 9 10 10 10 10 10 8 10 9 9 9 9 9 8 8 8 7 7
10 10 10 10 10 10 11 11 11 11 11 11 11 11 11 11 12 11 11 10 10 9 9 9 8 8 8
10 11 11 11 11 11 11 12 12 12 13 12 12 12 12 12 12 12 12 12 11 10 10 9 10 9 9
11 11 11 11 11 12 12 13 13 13 14 13 13 13 13 13 13 13 13 13 12 11 10 10 10 10 9
11 11 11 12 12 12 12 13 13 13 14 14 14 14 14 13 14 14 13 13 13 12 12 11 10 10 10
12 12 12 12 12 13 13 13 13 13 14 15 15 14 14 14 14 14 14 14 14 13 13 12 12 11 10
12 12 12 13 13 14 14 14 14 14 14 15 15 15 14 14 15 14 14 15 14 14 13 13 13 12 12
13 13 13 13 14 14 15 14 15 15 14 15 15 15 15 15 15 15 15 15 15 14 13 13 13 12 12
13 14 15 15 15 15 15 15 15 15 15 16 16 16 16 16 16 15 15 15 16 15 15 15 14 13 13
13 14 15 15 15 15 15 15 15 15 15 16 16 16 16 17 16 16 16 16 16 15 16 16 17 15 13
14 14 15 16 16 16 16 16 15 15 15 16 16 16 17 16 17 16 16 16 17 16 16 16 18 19 16
14 15 16 17 18 17 16 16 16 15 16 16 16 16 17 17 17 17 16 17 17 18 16 14 15 15 17